Погода в Сан-Ремо

Италия     43°48′53″N   7°46′25″E
темп.,
°C
ветер,
м/с
пор.,
м/с
влажн.,
%
обл.,
%
осадки,
мм/ч
давл.,
гПа
погр.,
м
13 июня, вс
вс1323:00+23зюз4473100 0.0 101877
02:00+23ююз118099 0.0 101658
05:00+22в33825 0.0 1017123
08:00+22в44835 0.0 1017220
11:00+22в558442 0.0 1018299
14:00+22в448275 0.0 1018247
17:00+23в45795 0.0 1017256
20:00+23в45815 0.0 1017275
14 июня, пн
пн1423:00+22в45852 0.0 1018272
02:00+22всв56840 0.0 1017336
05:00+22всв56810 0.0 1017305
08:00+22в45812 0.0 1018298
11:00+22в45805 0.0 1018261
14:00+23юв11756 0.0 1017194
17:00+22з22790 0.0 101678
20:00+23зсз11770 0.0 101584
15 июня, вт
вт1523:00+24з11780 0.0 101611
02:00+24ссв11795 0.1 101611
05:00+23всв118238 0.6 101511
08:00+21ссз2291100 9.1 101739
11:00+23в2284100 2.4 101799
14:00+23в2281100 3.1 1018107
17:00+23юв11780 0.0 101676
20:00+23зсз21770 0.1 101672
16 июня, ср
ср1623:00+24зсз33795 0.0 101623
02:00+24ссв22780 0.0 101615
05:00+23всв337817 0.0 101644
08:00+23в337797 0.0 101667
11:00+23в447716 0.4 1016204
14:00+23в568293 0.7 1016317
17:00+23в4580100 0.2 1015242
20:00+23в458198 0.3 1014162
17 июня, чт
чт1723:00+23всв6880100 0.1 1015241
02:00+23всв6107696 0.1 1015273
05:00+23св797590 0.0 1014341
08:00+23всв8117896 0.0 1015456
11:00+23в1213806 0.0 1015523
14:00+23в121478100 0.0 1014429
17:00+24всв10137398 0.0 1014318
20:00+24всв101268100 0.0 1012241